User: anonymous   Login
Location: Burbank
(38.7788°N, 114.0429°W)
Time: 11:41:33
(UTC+00:00)
Language:

Courier 1B - Orbit

View from above orbital plane
View from above orbital plane
View from above satellite
View from above satellite

Ground track
Ground track

The orbit is defined by the following mean orbital elements,

1 00058U          26134.82174421 +.00000000 +00000-0 +21820-4 0 00008
2 00058  28.3297 309.0359 0164940 291.5072  66.7963 13.46429284    05
Epoch (UTC): 14 May 2026 19:43:18
Eccentricity: 0.0164940
inclination: 28.3297°
perigee height: 962 km
apogee height: 1209 km
right ascension of ascending node: 309.0359°
argument of perigee: 291.5072°
revolutions per day: 13.46429284
mean anomaly at epoch: 66.7963°

The dashed part of the orbit path shows where the satellite is in the earth's shadow,  

DLR